Location: Caltech
(34.1382°N, 118.1253°W)
Time: 12:21:33
(UTC-07:00)

Uribyol 2 - Visible Passes

Search period start: 22 May 2017 00:00
Search period end: 01 June 2017 00:00
Orbit: 782 x 797 km, 98.8° (Epoch: 21 May)

Date Brightness Start Highest point End Pass type
(mag) Time Alt. Az. Time Alt. Az. Time Alt. Az.
22 May ? 03:33:42 10° NE 03:38:22 33° E 03:42:16 14° SSE visible
22 May ? 05:13:23 10° NNW 05:17:37 25° WNW 05:21:49 10° WSW visible
23 May ? 03:05:18 10° NE 03:08:31 16° E 03:11:45 10° SE visible
23 May ? 04:43:08 10° N 04:48:09 49° WNW 04:53:00 11° SW visible
24 May ? 04:13:21 10° NNE 04:18:36 84° ESE 04:23:01 15° SSW visible
25 May ? 03:43:58 10° NNE 03:48:54 41° E 03:53:01 14° SSE visible
26 May ? 03:15:12 10° NE 03:19:06 21° E 03:22:57 10° SE visible
26 May ? 04:53:46 10° N 04:58:35 39° WNW 05:03:24 10° SW visible
27 May ? 04:23:49 10° N 04:29:04 78° WNW 04:33:45 13° SSW visible
28 May ? 03:54:18 10° NNE 03:59:24 53° E 04:03:44 14° S visible
29 May ? 03:25:16 10° NE 03:29:38 26° E 03:33:44 11° SSE visible
29 May ? 05:04:26 10° N 05:08:59 31° WNW 05:13:33 10° SW visible
30 May ? 02:57:24 10° ENE 02:59:44 13° E 03:02:04 10° ESE visible
30 May ? 04:34:21 10° N 04:39:30 61° WNW 04:44:27 11° SSW visible
31 May ? 04:04:40 10° NNE 04:09:54 68° ESE 04:14:26 14° S visible
